AMU667 RCKH-VMMC

Flight info

Callsign AMU667
Flight time 1h 9m
Altitude 34000
Route PARAS2A PARAS T7 WP521 G581 ELATO J101 SMT
Aircraft A320/M-SDE3FGHIRWY/LB1

Departure

Time 2026-04-27 15:16
Airport Kaohsiung International Airport (RCKH)

Arrival

Time 2026-04-27 16:26
Airport Macau International Airport (VMMC)
Time Latitude Longitude Altitude Speed Heading
2026-04-27 15:01 22.57267 120.34128 38 ft 0 kts 91°
2026-04-27 15:09 22.57267 120.34127 38 ft 2 kts 91°
2026-04-27 15:10 22.57268 120.34101 38 ft 4 kts 92°
2026-04-27 15:10 22.57268 120.34072 38 ft 3 kts 80°
2026-04-27 15:10 22.57259 120.34050 37 ft 3 kts
2026-04-27 15:10 22.57256 120.34049 35 ft 0 kts
2026-04-27 15:12 22.57273 120.34050 35 ft 5 kts
2026-04-27 15:13 22.57330 120.34052 38 ft 10 kts
2026-04-27 15:13 22.57402 120.34037 38 ft 11 kts 313°
2026-04-27 15:13 22.57413 120.33947 38 ft 13 kts 272°
2026-04-27 15:13 22.57416 120.33839 38 ft 15 kts 272°
2026-04-27 15:14 22.57421 120.33715 38 ft 17 kts 278°
2026-04-27 15:14 22.57493 120.33624 38 ft 17 kts 314°
2026-04-27 15:14 22.57579 120.33534 38 ft 18 kts 317°
2026-04-27 15:14 22.57656 120.33502 38 ft 13 kts
2026-04-27 15:15 22.57745 120.33527 37 ft 14 kts 56°
2026-04-27 15:15 22.57752 120.33578 38 ft 0 kts 91°
2026-04-27 15:15 22.57751 120.33593 38 ft 13 kts 91°
2026-04-27 15:15 22.57738 120.33962 39 ft 83 kts 92°
2026-04-27 15:16 22.57713 120.34798 40 ft 136 kts 92°
2026-04-27 15:16 22.57676 120.35981 51 ft 175 kts 92°
2026-04-27 15:16 22.57634 120.37239 759 ft 161 kts 91°
2026-04-27 15:16 22.57388 120.38409 1250 ft 164 kts 128°
2026-04-27 15:17 22.56471 120.39103 1768 ft 166 kts 164°
2026-04-27 15:17 22.55261 120.39005 1960 ft 191 kts 206°
2026-04-27 15:17 22.54146 120.38083 2179 ft 214 kts 219°
2026-04-27 15:17 22.53003 120.36989 2651 ft 223 kts 220°
2026-04-27 15:18 22.51837 120.35855 3341 ft 226 kts 220°
2026-04-27 15:18 22.50669 120.34718 4105 ft 226 kts 220°
2026-04-27 15:18 22.49499 120.33588 4886 ft 226 kts 219°
2026-04-27 15:18 22.48352 120.32394 5460 ft 239 kts 232°
2026-04-27 15:19 22.47592 120.30948 5749 ft 261 kts 241°
2026-04-27 15:19 22.46748 120.29150 6338 ft 272 kts 241°
2026-04-27 15:19 22.45890 120.27313 7098 ft 276 kts 242°
2026-04-27 15:19 22.45019 120.25448 7833 ft 279 kts 242°
2026-04-27 15:20 22.44140 120.23564 8576 ft 282 kts 242°
2026-04-27 15:20 22.43262 120.21683 9301 ft 285 kts 242°
2026-04-27 15:20 22.42364 120.19759 9997 ft 289 kts 242°
2026-04-27 15:20 22.41440 120.17786 10378 ft 303 kts 242°
2026-04-27 15:21 22.40449 120.15680 10524 ft 325 kts 242°
2026-04-27 15:21 22.39411 120.13471 10953 ft 333 kts 242°
2026-04-27 15:21 22.38358 120.11227 11542 ft 336 kts 242°
2026-04-27 15:21 22.37296 120.08962 12152 ft 339 kts 242°
2026-04-27 15:22 22.36224 120.06681 12759 ft 342 kts 242°
2026-04-27 15:22 22.35143 120.04385 13371 ft 344 kts 242°
2026-04-27 15:22 22.34051 120.02073 13958 ft 347 kts 242°
2026-04-27 15:22 22.32952 119.99743 14491 ft 349 kts 242°
2026-04-27 15:23 22.31846 119.97396 15027 ft 352 kts 242°
2026-04-27 15:23 22.30731 119.95035 15564 ft 354 kts 242°
2026-04-27 15:23 22.29606 119.92655 16088 ft 357 kts 242°
2026-04-27 15:23 22.28476 119.90259 16613 ft 359 kts 242°
2026-04-27 15:24 22.27335 119.87837 17144 ft 362 kts 243°
2026-04-27 15:24 22.26190 119.85410 17662 ft 364 kts 243°
2026-04-27 15:24 22.25046 119.82991 18183 ft 367 kts 243°
2026-04-27 15:24 22.23881 119.80530 18649 ft 369 kts 243°
2026-04-27 15:25 22.22707 119.78049 19122 ft 371 kts 243°
2026-04-27 15:25 22.21532 119.75561 19605 ft 373 kts 244°
2026-04-27 15:25 22.20615 119.72939 20083 ft 375 kts 255°
2026-04-27 15:25 22.20023 119.70197 20589 ft 376 kts 257°
2026-04-27 15:26 22.19436 119.67443 21085 ft 378 kts 257°
2026-04-27 15:26 22.18839 119.64676 21572 ft 379 kts 257°
2026-04-27 15:26 22.18235 119.61899 22059 ft 381 kts 257°
2026-04-27 15:26 22.17846 119.60114 22374 ft 382 kts 257°
2026-04-27 15:27 22.17234 119.57311 22848 ft 384 kts 257°
2026-04-27 15:27 22.16630 119.54532 23317 ft 386 kts 257°
2026-04-27 15:27 22.16145 119.51677 23727 ft 388 kts 265°
2026-04-27 15:27 22.16042 119.48754 24098 ft 390 kts 268°
2026-04-27 15:28 22.15973 119.45828 24460 ft 392 kts 268°
2026-04-27 15:28 22.15898 119.42876 24817 ft 394 kts 268°
2026-04-27 15:28 22.15821 119.39918 25168 ft 396 kts 268°
2026-04-27 15:28 22.15738 119.36944 25517 ft 398 kts 268°
2026-04-27 15:29 22.15653 119.33947 25864 ft 400 kts 268°
2026-04-27 15:29 22.15568 119.30946 26200 ft 402 kts 268°
2026-04-27 15:29 22.15485 119.27958 26531 ft 404 kts 268°
2026-04-27 15:29 22.15401 119.24919 26860 ft 406 kts 268°
2026-04-27 15:30 22.15318 119.21866 27183 ft 408 kts 268°
2026-04-27 15:30 22.15232 119.18798 27497 ft 410 kts 268°
2026-04-27 15:30 22.15143 119.15711 27817 ft 412 kts 268°
2026-04-27 15:30 22.15051 119.12616 28137 ft 414 kts 268°
2026-04-27 15:31 22.14979 119.09507 28457 ft 416 kts 271°
2026-04-27 15:31 22.15255 119.06391 28775 ft 419 kts 277°
2026-04-27 15:31 22.15648 119.03275 29096 ft 421 kts 276°
2026-04-27 15:31 22.16033 119.00140 29412 ft 423 kts 276°
2026-04-27 15:32 22.16413 118.96987 29731 ft 425 kts 276°
2026-04-27 15:32 22.16789 118.93815 30029 ft 427 kts 276°
2026-04-27 15:32 22.17158 118.90663 30293 ft 429 kts 276°
2026-04-27 15:32 22.17534 118.87473 30660 ft 428 kts 276°
2026-04-27 15:33 22.17912 118.84284 31057 ft 427 kts 276°
2026-04-27 15:33 22.18289 118.81109 31447 ft 426 kts 276°
2026-04-27 15:33 22.18667 118.77947 31838 ft 425 kts 276°
2026-04-27 15:33 22.19044 118.74792 32232 ft 424 kts 276°
2026-04-27 15:34 22.19418 118.71642 32628 ft 422 kts 276°
2026-04-27 15:34 22.19788 118.68504 33031 ft 421 kts 276°
2026-04-27 15:34 22.20159 118.65361 33433 ft 420 kts 276°
2026-04-27 15:34 22.20529 118.62235 33830 ft 419 kts 276°
2026-04-27 15:35 22.20895 118.59109 33960 ft 419 kts 275°
2026-04-27 15:35 22.21260 118.55994 33979 ft 418 kts 275°
2026-04-27 15:35 22.21977 118.49812 33984 ft 418 kts 275°
2026-04-27 15:36 22.22699 118.43588 33982 ft 418 kts 275°
2026-04-27 15:36 22.23427 118.37362 33979 ft 418 kts 275°
2026-04-27 15:37 22.24149 118.31136 33986 ft 418 kts 275°
2026-04-27 15:37 22.24871 118.24901 33987 ft 418 kts 275°
2026-04-27 15:38 22.25581 118.18699 33988 ft 419 kts 275°
2026-04-27 15:38 22.26294 118.12457 33997 ft 419 kts 275°
2026-04-27 15:39 22.26998 118.06209 34000 ft 419 kts 275°
2026-04-27 15:39 22.27680 117.99951 34001 ft 419 kts 275°
2026-04-27 15:40 22.28375 117.93698 34001 ft 419 kts 276°
2026-04-27 15:40 22.29100 117.87451 33997 ft 419 kts 276°
2026-04-27 15:41 22.29825 117.81199 34002 ft 419 kts 276°
2026-04-27 15:41 22.30531 117.74946 34002 ft 419 kts 276°
2026-04-27 15:42 22.31232 117.68740 34001 ft 419 kts 276°
2026-04-27 15:42 22.31937 117.62494 34002 ft 419 kts 276°
2026-04-27 15:43 22.32636 117.56248 33999 ft 419 kts 276°
2026-04-27 15:43 22.33355 117.50009 33998 ft 419 kts 279°
2026-04-27 15:44 22.34642 117.43868 33997 ft 419 kts 282°
2026-04-27 15:44 22.35946 117.37734 33999 ft 419 kts 281°
2026-04-27 15:45 22.37247 117.31602 33995 ft 419 kts 282°
2026-04-27 15:45 22.38533 117.25503 34003 ft 419 kts 282°
2026-04-27 15:46 22.39824 117.19365 33995 ft 418 kts 282°
2026-04-27 15:46 22.41116 117.13236 34000 ft 418 kts 282°
2026-04-27 15:47 22.42410 117.07107 33998 ft 418 kts 282°
2026-04-27 15:47 22.43693 117.00971 34000 ft 418 kts 282°
2026-04-27 15:48 22.44979 116.94843 33998 ft 418 kts 282°
2026-04-27 15:49 22.46893 116.85688 33994 ft 418 kts 282°
2026-04-27 15:49 22.48169 116.79562 33994 ft 418 kts 282°
2026-04-27 15:50 22.49439 116.73434 33996 ft 418 kts 282°
2026-04-27 15:50 22.50545 116.67272 33994 ft 417 kts 273°
2026-04-27 15:51 22.50358 116.61017 33988 ft 417 kts 266°
2026-04-27 15:51 22.50006 116.54766 33991 ft 417 kts 266°
2026-04-27 15:52 22.49657 116.48500 33990 ft 417 kts 267°
2026-04-27 15:52 22.49315 116.42239 33984 ft 417 kts 267°
2026-04-27 15:53 22.48973 116.36017 33985 ft 417 kts 266°
2026-04-27 15:53 22.48612 116.29761 33988 ft 417 kts 266°
2026-04-27 15:54 22.48254 116.23503 33985 ft 417 kts 267°
2026-04-27 15:54 22.47897 116.17246 33988 ft 417 kts 266°
2026-04-27 15:55 22.47537 116.10989 33987 ft 417 kts 267°
2026-04-27 15:55 22.47176 116.04743 33988 ft 416 kts 266°
2026-04-27 15:56 22.46812 115.98493 33986 ft 416 kts 266°
2026-04-27 15:56 22.46438 115.92244 33988 ft 417 kts 266°
2026-04-27 15:57 22.46067 115.86037 33988 ft 416 kts 266°
2026-04-27 15:57 22.45693 115.79788 33990 ft 416 kts 266°
2026-04-27 15:58 22.45319 115.73546 33991 ft 416 kts 266°
2026-04-27 15:58 22.44941 115.67305 33989 ft 416 kts 266°
2026-04-27 15:59 22.44552 115.61061 33987 ft 416 kts 266°
2026-04-27 15:59 22.44172 115.54804 33969 ft 424 kts 267°
2026-04-27 16:00 22.43778 115.48334 33969 ft 438 kts 267°
2026-04-27 16:00 22.43361 115.41680 33973 ft 448 kts 267°
2026-04-27 16:01 22.42929 115.34907 33969 ft 453 kts 267°
2026-04-27 16:01 22.42574 115.29260 33968 ft 454 kts 267°
2026-04-27 16:02 22.42151 115.22501 33958 ft 438 kts 267°
2026-04-27 16:02 22.41877 115.18248 33967 ft 421 kts 267°
2026-04-27 16:02 22.41676 115.15105 33965 ft 417 kts 267°
2026-04-27 16:03 22.41338 115.09874 33962 ft 416 kts 267°
2026-04-27 16:03 22.40940 115.03689 33966 ft 415 kts 267°
2026-04-27 16:04 22.40541 114.97468 33965 ft 415 kts 267°
2026-04-27 16:04 22.40134 114.91250 33406 ft 413 kts 267°
2026-04-27 16:04 22.39931 114.88168 32961 ft 409 kts 267°
2026-04-27 16:05 22.39731 114.85120 32515 ft 405 kts 267°
2026-04-27 16:05 22.39532 114.82101 32070 ft 401 kts 266°
2026-04-27 16:05 22.39332 114.79103 31620 ft 398 kts 266°
2026-04-27 16:05 22.39133 114.76130 31198 ft 395 kts 266°
2026-04-27 16:06 22.38936 114.73180 30765 ft 393 kts 266°
2026-04-27 16:06 22.38741 114.70245 30307 ft 391 kts 266°
2026-04-27 16:06 22.38545 114.67318 29828 ft 390 kts 266°
2026-04-27 16:06 22.38349 114.64407 29376 ft 386 kts 266°
2026-04-27 16:07 22.38154 114.61524 28947 ft 383 kts 266°
2026-04-27 16:07 22.37965 114.58701 28541 ft 380 kts 266°
2026-04-27 16:07 22.37776 114.55858 28128 ft 378 kts 266°
2026-04-27 16:07 22.37586 114.53034 27714 ft 376 kts 266°
2026-04-27 16:08 22.37393 114.50228 27303 ft 374 kts 266°
2026-04-27 16:08 22.37200 114.47429 26891 ft 372 kts 266°
2026-04-27 16:08 22.37010 114.44645 26471 ft 372 kts 266°
2026-04-27 16:08 22.36820 114.41863 26053 ft 371 kts 266°
2026-04-27 16:09 22.36630 114.39082 25625 ft 371 kts 266°
2026-04-27 16:09 22.36246 114.33531 24753 ft 371 kts 265°
2026-04-27 16:09 22.36053 114.30749 24296 ft 371 kts 265°
2026-04-27 16:10 22.35669 114.25197 23496 ft 368 kts 265°
2026-04-27 16:10 22.35285 114.19709 22572 ft 360 kts 265°
2026-04-27 16:11 22.35098 114.17067 21950 ft 351 kts 266°
2026-04-27 16:11 22.34726 114.11841 21076 ft 347 kts 265°
2026-04-27 16:12 22.34359 114.06667 20209 ft 344 kts 265°
2026-04-27 16:12 22.34178 114.04098 19774 ft 343 kts 265°
2026-04-27 16:12 22.33799 113.98976 18904 ft 341 kts 261°
2026-04-27 16:13 22.33194 113.96510 18465 ft 340 kts 248°
2026-04-27 16:13 22.30419 113.92427 17530 ft 340 kts 220°
2026-04-27 16:13 22.28575 113.90833 17097 ft 338 kts 220°
2026-04-27 16:14 22.24918 113.87667 16238 ft 335 kts 220°
2026-04-27 16:14 22.21293 113.84535 15389 ft 332 kts 220°
2026-04-27 16:15 22.17700 113.81434 14551 ft 329 kts 219°
2026-04-27 16:15 22.14155 113.78379 13747 ft 324 kts 219°
2026-04-27 16:16 22.10764 113.75460 12891 ft 298 kts 219°
2026-04-27 16:16 22.07618 113.72748 12171 ft 289 kts 219°
2026-04-27 16:17 22.04476 113.70043 11436 ft 289 kts 219°
2026-04-27 16:17 22.01340 113.67332 10631 ft 291 kts 219°
2026-04-27 16:18 21.98238 113.64622 9596 ft 283 kts 219°
2026-04-27 16:18 21.95204 113.61968 8644 ft 283 kts 219°
2026-04-27 16:19 21.93679 113.60636 8298 ft 281 kts 218°
2026-04-27 16:19 21.91995 113.59561 7825 ft 284 kts 199°
2026-04-27 16:20 21.86593 113.60700 6686 ft 279 kts 131°
2026-04-27 16:20 21.85774 113.62577 6096 ft 281 kts 99°
2026-04-27 16:20 21.86735 113.66603 4862 ft 284 kts 55°
2026-04-27 16:21 21.88212 113.67970 4247 ft 283 kts 25°
2026-04-27 16:21 21.93776 113.67063 3291 ft 267 kts 341°
2026-04-27 16:22 21.95503 113.66433 3163 ft 257 kts 341°
2026-04-27 16:22 21.98701 113.65112 3006 ft 232 kts 333°
2026-04-27 16:22 22.00143 113.64492 3000 ft 216 kts 341°
2026-04-27 16:23 22.01518 113.63993 2992 ft 208 kts 342°
2026-04-27 16:23 22.04240 113.63071 2765 ft 202 kts 342°
2026-04-27 16:23 22.05546 113.62596 2334 ft 198 kts 342°
2026-04-27 16:24 22.06874 113.62106 1671 ft 206 kts 342°
2026-04-27 16:24 22.09529 113.61130 922 ft 192 kts 343°
2026-04-27 16:25 22.11821 113.60286 469 ft 159 kts 342°
2026-04-27 16:25 22.13872 113.59537 59 ft 154 kts 342°
2026-04-27 16:26 22.15216 113.59046 29 ft 48 kts 342°
2026-04-27 16:26 22.15968 113.58768 30 ft 47 kts 341°
2026-04-27 16:27 22.16217 113.58537 29 ft 21 kts 279°
2026-04-27 16:27 22.16253 113.58278 29 ft 10 kts 249°
2026-04-27 16:28 22.16194 113.58104 29 ft 14 kts 254°
2026-04-27 16:28 22.16122 113.57868 29 ft 19 kts 252°
2026-04-27 16:29 22.15835 113.57693 29 ft 18 kts 195°
2026-04-27 16:30 22.15778 113.57676 29 ft 1 kts 197°
2026-04-27 16:30 22.15783 113.57644 29 ft 4 kts 290°
2026-04-27 16:31 22.15802 113.57595 29 ft 0 kts 292°
2026-04-27 16:31 22.15802 113.57594 29 ft 0 kts 292°